Hourly Data Report for September 29, 2017

VICTORIA UNIVERSITY CS
BRITISH COLUMBIA

48°27'25.200" N
123°18'16.600" W
60.10 m
1018598
71783
WYJ

Download Data

Hourly Data (September 2017)
Hourly Data Report for September 29, 2017
TIME
LST
Temp Definition
°C
Dew Point Definition
°C
Rel Hum Definition
%
Precip. Amount Definition
mm

Wind Dir Definition
10's deg

Wind Spd Definition
km/h
Visibility Definition
km
Stn Press Definition
kPa
Hmdx Definition


Wind Chill Definition


Weather Definition


00:00 15.7 11.2 75 0.0 25 7   100.28     LegendNANA
01:00 15.4 11.1 75 0.0 27 4   100.27     LegendNANA
02:00 15.8 11.4 75 0.0 22 5   100.31     LegendNANA
03:00 16.4 11.4 72 0.0 22 5   100.30     LegendNANA
04:00 14.6 12.0 84 0.0 25 6   100.32     LegendNANA
05:00 15.2 12.0 81 0.0 23 4   100.38     LegendNANA
06:00 13.3 11.7 90 0.7 9 4   100.36     LegendNANA
07:00 12.6 11.8 95 0.0 12 2   100.48     LegendNANA
08:00 13.2 12.2 94 0.0 17 5   100.51     LegendNANA
09:00 13.7 12.7 93 0.0 14 3   100.50     LegendNANA
10:00 13.9 12.9 94 0.2 8 2   100.53     LegendNANA
11:00 14.3 13.1 93 0.0 16 2   100.60     LegendNANA
12:00 15.3 14.2 93 0.3 7 3   100.53     LegendNANA
13:00 15.8 14.1 90 0.0 14 3   100.56     LegendNANA
14:00 16.7 12.4 76 0.0 25 12   100.60     LegendNANA
15:00 16.3 9.1 63 0.0 26 14   100.60     LegendNANA
16:00 15.9 8.8 63 0.0 25 17   100.64     LegendNANA
17:00 14.9 7.8 62 0.0 26 18   100.65     LegendNANA
18:00 13.7 8.7 72 0.0 25 11   100.80     LegendNANA
19:00 13.0 9.2 78 0.0 24 6   100.89     LegendNANA
20:00 12.4 9.3 81 0.0 24 5   100.94     LegendNANA
21:00 12.5 9.8 84 0.0 24 9   100.95     LegendNANA
22:00 11.6 9.6 88 0.0 24 2   100.99     LegendNANA
23:00 12.8 10.1 84 0.0 26 4   101.01     LegendNANA

Notes on Data Quality.

Legend

  • E = Estimated
  • M = Missing
  • NA = Not Available*
  • [empty] = Indicates an unobserved value
Date modified: